Torna al catalogo

COSMOS 875

AttivoMilitareLEO
NORAD 9592·PAYLOAD·🇷🇺 Russia

Lanciato Dec 7, 1976 da Plesetsk Cosmodrome

Loading…

Prossimi Passaggi (prossime 24 ore)

TLE

AggiornatoSource: Space-Track

Epoca: Sep 14, 2026, 09:48 UTC

1 09592U 76118E   26257.40881751 -.00000027  00000-0 -70923-4 0  9990
2 09592  74.0299  52.9397 0018040 317.3991  70.7785 12.53520807277282

Traccia COSMOS 875 in tempo reale con AllMySat

Download on the App Store